Location: Buckeye Ditch
(40.9104°N, 122.9517°W)
Time: 14:11:38
(UTC+00:00)

Vanguard 3 - All Passes

Search period start: 18 May 2025 00:00
Search period end: 28 May 2025 00:00
Orbit: 508 x 3216 km, 33.3° (Epoch: 17 May)

Date Brightness Start Highest point End Pass type
(mag) Time Alt. Az. Time Alt. Az. Time Alt. Az.
18 May - 11:39:30 10° SSW 11:43:27 17° SSE 11:46:32 10° SE visible
18 May - 13:50:10 10° SW 13:54:09 27° S 13:57:24 10° ESE daylight
18 May - 16:01:26 10° WSW 16:04:25 23° S 16:07:31 10° SE daylight
19 May - 10:20:13 10° S 10:23:17 12° SSE 10:25:51 10° SE visible
19 May - 12:29:38 10° SW 12:34:29 25° S 12:38:02 10° ESE daylight
19 May - 14:41:16 10° WSW 14:44:57 28° S 14:48:09 10° ESE daylight
19 May - 16:53:01 10° SW 16:55:10 15° SSW 16:57:27 10° SSE daylight
20 May - 11:08:58 10° SSW 11:14:31 21° SSE 11:18:28 10° ESE visible
20 May - 13:20:37 10° WSW 13:25:23 31° S 13:28:55 10° ESE daylight
20 May - 15:32:34 10° WSW 15:35:39 22° SSW 15:38:34 10° SE daylight
21 May - 09:48:43 10° SSW 09:54:11 17° SSE 09:58:19 10° ESE visible
21 May - 11:59:33 10° SW 12:05:36 29° S 12:09:42 10° ESE visible
21 May - 14:11:57 10° WSW 14:16:11 30° S 14:19:32 10° SE daylight
21 May - 16:24:31 10° SW 16:26:19 13° SSW 16:28:07 10° S daylight
22 May - 08:30:11 10° S 08:33:28 12° SSE 08:36:19 10° SE visible
22 May - 10:38:19 10° SW 10:45:29 26° SSE 10:50:17 10° ESE visible
22 May - 12:50:50 10° WSW 12:56:34 35° S 13:00:29 10° ESE daylight
22 May - 15:03:29 10° WSW 15:06:51 22° SSW 15:09:47 10° SE daylight
23 May - 09:17:22 10° SSW 09:24:58 21° SSE 09:30:19 10° ESE visible
23 May - 11:29:15 10° SW 11:36:38 34° S 11:41:21 10° ESE visible
23 May - 13:42:23 10° WSW 13:47:22 33° S 13:50:59 10° SE daylight
23 May - 15:55:46 10° SW 15:57:25 12° SSW 15:59:00 10° S daylight
24 May - 07:57:36 10° S 08:04:01 15° SSE 08:09:05 10° ESE visible
24 May - 10:07:28 10° SW 10:16:20 31° SSE 10:21:58 10° ESE visible
24 May - 12:20:47 10° WSW 12:27:39 39° S 12:32:02 10° ESE daylight
24 May - 14:34:07 10° WSW 14:38:02 23° SSW 14:41:09 10° SE daylight
25 May - 08:46:00 10° SSW 08:55:36 25° SSE 09:02:04 10° ESE visible
25 May - 10:58:42 10° WSW 11:07:35 39° S 11:12:56 10° ESE visible
25 May - 13:12:35 10° WSW 13:18:30 36° SSW 13:22:30 10° SE daylight
25 May - 15:26:39 10° SW 15:28:29 12° SSW 15:30:11 10° S daylight
26 May - 07:25:33 10° S 07:34:25 19° SSE 07:41:05 10° ESE visible
26 May - 09:36:27 10° SW 09:47:03 35° SSE 09:53:33 10° ESE visible
26 May - 11:50:30 10° WSW 11:58:40 44° S 12:03:36 10° ESE visible
26 May - 14:04:31 10° WSW 14:09:08 25° SSW 14:12:35 10° SE daylight
27 May - 06:08:10 10° SSE 06:12:55 12° SE 06:17:08 10° SE night (unlit)
27 May - 08:14:33 10° SSW 08:26:04 29° SSE 08:33:37 10° ESE visible
27 May - 10:27:57 10° WSW 10:38:22 44° S 10:44:28 10° ESE visible
27 May - 12:42:31 10° WSW 12:49:33 39° SSW 12:54:01 10° ESE daylight
27 May - 14:57:12 10° WSW 14:59:31 13° SSW 15:01:34 10° S daylight
